COSMOS 2425 (716) 1 29670U 06062A 21018.31783351 .00000007 00000-0 00000-0 0 9998 2 29670 64.8853 260.5245 0024580 348.3591 177.4395 2.13107776109477 COSMOS 2433 (720) 1 32275U 07052A 21018.58169878 -.00000054 00000-0 00000-0 0 9997 2 32275 66.0370 21.7659 0005356 257.8089 290.1942 2.13104242102998 COSMOS 2432 (719) 1 32276U 07052B 21019.17955927 -.00000050 00000-0 00000+0 0 9997 2 32276 66.0494 21.8370 0011702 317.0058 279.2851 2.13103447103000 COSMOS 2434 (721) 1 32393U 07065A 21018.86549814 .00000010 00000-0 00000-0 0 9996 2 32393 64.5023 259.0335 0003809 72.3637 221.3469 2.13103060101709 COSMOS 2436 (723) 1 32395U 07065C 21019.17895620 .00000012 00000-0 00000+0 0 9993 2 32395 64.5102 259.0736 0015843 2.8586 307.4856 2.13102953101645 COSMOS 2456 (730) 1 36111U 09070A 21018.67923789 .00000022 00000-0 00000-0 0 9995 2 36111 64.2548 138.7184 0002608 328.2074 355.1459 2.13099128 86367 COSMOS 2457 (733) 1 36112U 09070B 21019.03590978 .00000021 00000-0 00000+0 0 9995 2 36112 64.2368 138.5949 0006431 154.7688 205.3945 2.13101395 86384 COSMOS 2459 (731) 1 36400U 10007A 21018.78356168 -.00000053 00000-0 00000-0 0 9996 2 36400 65.9352 20.7023 0025633 343.5017 215.4717 2.13105061 84717 COSMOS 2461 (735) 1 36401U 10007B 21018.78221478 -.00000053 00000-0 00000-0 0 9992 2 36401 65.9302 20.6666 0019690 359.2362 200.7034 2.13103726 84724 COSMOS 2460 (732) 1 36402U 10007C 21018.90751634 -.00000052 00000-0 00000+0 0 9997 2 36402 65.9171 20.6214 0002662 269.4413 329.9415 2.13106543 84725 COSMOS 2464 (736) 1 37139U 10041C 21018.90143772 .00000011 00000-0 00000+0 0 9995 2 37139 64.1019 258.3634 0028675 11.5177 171.7860 2.13100744 80782 COSMOS 2471 (701K) 1 37372U 11009A 21018.64169350 -.00000054 00000-0 00000-0 0 9999 2 37372 65.9151 20.5702 0010572 234.2935 324.6856 2.13107408 76991 COSMOS 2476 (744) 1 37867U 11064A 21018.46968297 .00000024 00000-0 00000-0 0 9992 2 37867 64.5513 139.8794 0019266 233.3343 190.3007 2.13101818 71714 COSMOS 2477 (745) 1 37868U 11064B 21019.17889448 .00000022 00000-0 00000+0 0 9999 2 37868 64.5587 139.9142 0016768 233.5066 192.6188 2.13101674 71683 COSMOS 2475 (743) 1 37869U 11064C 21018.90007428 .00000024 00000-0 00000-0 0 9993 2 37869 64.5666 139.9272 0020493 256.8803 272.9235 2.13101752 71685 COSMOS 2485 (747) 1 39155U 13019A 21019.16641368 .00000023 00000-0 00000+0 0 9999 2 39155 64.7182 140.1719 0019813 228.5500 54.1173 2.13101778 60197 COSMOS 2492 (754) 1 39620U 14012A 21019.18480685 -.00000051 00000-0 00000+0 0 9997 2 39620 65.8073 20.3642 0015082 316.9335 14.7629 2.13103170 53144 COSMOS 2500 (755) 1 40001U 14032A 21018.72266819 -.00000054 00000-0 00000-0 0 9998 2 40001 65.7461 20.2799 0008007 221.9637 335.1895 2.13102496 51356 COSMOS 2501 (702K) 1 40315U 14075A 21018.42245689 .00000008 00000-0 00000-0 0 9990 2 40315 63.8157 259.2444 0015555 209.6748 282.9954 2.13101260 47750 COSMOS 2514 (751) 1 41330U 16008A 21018.68941757 -.00000055 00000-0 00000-0 0 9996 2 41330 65.5487 20.1003 0011624 225.0076 129.4927 2.13102847 38519 COSMOS 2516 (753) 1 41554U 16032A 21018.77325043 .00000009 00000-0 00000-0 0 9993 2 41554 64.0398 259.3650 0011849 219.3988 91.4723 2.13106604 36125 COSMOS 2522 (752) 1 42939U 17055A 21018.29588293 .00000008 00000-0 00000-0 0 9991 2 42939 64.2735 259.6239 0006389 255.0719 275.4040 2.13102068 25874 COSMOS 2527 (756) 1 43508U 18053A 21019.17437631 .00000023 00000-0 00000+0 0 9996 2 43508 64.8819 140.0645 0006963 220.3096 296.1015 2.13102448 20184 COSMOS 2529 (757) 1 43687U 18086A 21018.83444044 .00000009 00000-0 00000+0 0 9992 2 43687 64.4868 259.7845 0009120 279.2787 259.9221 2.13102104 17192 COSMOS 2534 (758) 1 44299U 19030A 21018.80219264 .00000009 00000-0 00000-0 0 9994 2 44299 64.5579 259.6203 0012569 296.4962 352.8804 2.13101940 12839 COSMOS 2544 (759) 1 44850U 19088A 21019.17640293 .00000023 00000-0 00000+0 0 9996 2 44850 64.8666 139.9276 0010334 258.9802 302.8731 2.13102276 8625 COSMOS 2545 (760) 1 45358U 20018A 21018.87273192 -.00000055 00000-0 00000-0 0 9998 2 45358 64.8793 21.1261 0011412 256.6540 282.4404 2.13102659 6564